Regional Weather Roundup
Issued by NWS Albany, NY

Current Version | Previous Version | Text Only | Print | Product List | Glossary On
Versions: 1 2 3 4 5 6 7 8 9 10 11 12 13 14 15 16 17 18 19 20 21 22 23 24 25 26 27
000 ASUS41 KALY 211910 RWRALY NEW YORK STATE HOURLY WEATHER ROUNDUP NATIONAL WEATHER SERVICE ALBANY NY 200 PM EST SAT JAN 21 2017 NOTE: "FAIR" INDICATES FEW OR NO CLOUDS BELOW 12,000 FEET WITH NO SIGNIFICANT WEATHER AND/OR NO OBSTRUCTIONS TO VISIBILITY. NYZ032-033-038>043-046>054-057>066-NYZ062>081-082-084-212000- EAST CITY SKY/WX TMP DP RH WIND PRES REMARKS ALBANY PTSUNNY 51 40 65 S3 29.77F GLENS FALLS CLOUDY 45 38 76 VRB6 29.75F POUGHKEEPSIE SUNNY 51 43 74 SW5 29.77F NEWBURGH SUNNY 52 46 82 SW7 29.79F MONTGOMERY SUNNY 54 45 71 SW10 29.75F WHITE PLAINS MOSUNNY 51 44 77 VRB3 29.78F ISLIP PTSUNNY 49 44 83 S8 29.80F NEW YORK CITY MOSUNNY 51 44 77 VRB6 29.80F CENTRAL PARK SUNNY 48 43 82 CALM 29.83F $$ NYZ005>009-017-018-044>046-055-056-212000- CENTRAL CITY SKY/WX TMP DP RH WIND PRES REMARKS FULTON CLOUDY 49 44 83 CALM 29.75F SYRACUSE PTSUNNY 52 44 74 NE3 29.74F ROME SUNNY 47 43 86 CALM 29.77F ELMIRA SUNNY 58 46 64 SW9 29.74F BINGHAMTON SUNNY 50 45 83 S6 29.74F MONTICELLO CLOUDY 43 43 100 MISG 29.79F VSB 3/4 $$ NYZ026>034-041>043-087-212000- NORTH CITY SKY/WX TMP DP RH WIND PRES REMARKS WATERTOWN FOG 40 40 100 W6 29.76S VSB 1/2 FORT DRUM NOT AVBL OGDENSBURG CLOUDY 40 39 98 SW6 29.75S FOG MASSENA CLOUDY 40 39 97 W6 29.76S FOG SARANAC LAKE CLOUDY 39 37 92 VRB7 29.69S WCI 34 PLATTSBURGH CLOUDY 40 36 86 N6 29.72S $$ NYZ001>004-010>016-019>021-085-212000- WEST CITY SKY/WX TMP DP RH WIND PRES REMARKS NIAGARA FALLS CLOUDY 50 46 86 NE7 29.70F FOG BUFFALO PTSUNNY 57 49 74 E3 29.70F DUNKIRK MOSUNNY 60 50 69 S13G20 29.69S JAMESTOWN N/A 55 48 76 S6 29.71F WELLSVILLE PTSUNNY 56 46 69 SW9 29.75F ROCHESTER CLOUDY 50 46 86 NE7 29.73F PENN YAN PTSUNNY 60 45 57 SW3 29.72F $$ KEY WCI = WIND CHILL INDEX VSB = VISIBILITY HX = HEAT INDEX $$

USA.gov is the U.S. government's official web portal to all federal, state and local government web resources and services.